TimeCDT,TemperatureF,Dew PointF,Humidity,Sea Level PressureIn,VisibilityMPH,Wind Direction,Wind SpeedMPH,Gust SpeedMPH,PrecipitationIn,Events,Conditions,WindDirDegrees,DateUTC
12:05 AM,62.6,60.8,94,29.57,1.0,NE,9.2,-,N/A,,Mist,50,2013-05-20 05:05:00
12:37 AM,57.2,57.2,100,29.58,3.0,East,10.4,-,N/A,,Overcast,80,2013-05-20 05:37:00
12:53 AM,57.9,57.9,100,29.60,4.0,ENE,9.2,-,N/A,,Overcast,60,2013-05-20 05:53:00
1:53 AM,55.9,55.0,97,29.56,2.5,ENE,8.1,-,N/A,,Overcast,60,2013-05-20 06:53:00
2:11 AM,55.4,55.4,100,29.54,3.0,ENE,9.2,18.4,N/A,,Overcast,70,2013-05-20 07:11:00
2:32 AM,55.4,53.6,94,29.54,2.5,East,8.1,17.3,N/A,,Overcast,80,2013-05-20 07:32:00
2:53 AM,53.6,53.6,100,29.54,2.0,East,8.1,-,N/A,,Overcast,80,2013-05-20 07:53:00
3:48 AM,53.6,53.6,100,29.53,1.5,ENE,10.4,-,N/A,,Overcast,70,2013-05-20 08:48:00
3:53 AM,54.0,54.0,100,29.55,1.8,East,9.2,-,N/A,,Overcast,80,2013-05-20 08:53:00
4:03 AM,53.6,53.6,100,29.52,2.0,ENE,8.1,-,N/A,,Overcast,70,2013-05-20 09:03:00
4:53 AM,55.0,54.0,96,29.52,6.0,East,6.9,-,N/A,,Overcast,80,2013-05-20 09:53:00
5:35 AM,55.4,53.6,94,29.50,6.0,ENE,9.2,-,0.01,Rain,Light Rain,70,2013-05-20 10:35:00
5:48 AM,55.4,53.6,94,29.51,6.0,East,6.9,-,0.01,Rain,Light Rain,80,2013-05-20 10:48:00
5:53 AM,55.0,54.0,96,29.53,5.0,ENE,8.1,-,0.02,Rain,Light Rain,70,2013-05-20 10:53:00
6:28 AM,55.4,53.6,94,29.51,1.8,East,8.1,-,0.02,Rain,Rain,80,2013-05-20 11:28:00
6:42 AM,55.4,55.4,100,29.51,2.5,East,8.1,-,0.06,Rain,Light Rain,80,2013-05-20 11:42:00
6:47 AM,55.4,55.4,100,29.52,3.0,ENE,8.1,-,0.06,Rain,Light Rain,70,2013-05-20 11:47:00
6:53 AM,55.0,55.0,100,29.54,2.5,East,9.2,-,0.06,Rain,Light Rain,80,2013-05-20 11:53:00
7:00 AM,55.4,55.4,100,29.52,1.8,East,9.2,-,0.01,Rain,Light Rain,80,2013-05-20 12:00:00
7:08 AM,55.4,55.4,100,29.52,2.5,East,5.8,-,0.03,Rain,Light Rain,80,2013-05-20 12:08:00
7:22 AM,55.4,53.6,94,29.52,5.0,East,6.9,-,0.04,Rain,Light Rain,80,2013-05-20 12:22:00
7:53 AM,54.0,54.0,100,29.54,4.0,ENE,8.1,-,0.04,Rain,Light Rain,70,2013-05-20 12:53:00
8:53 AM,55.0,54.0,96,29.54,10.0,ENE,8.1,-,0.00,,Overcast,60,2013-05-20 13:53:00
9:14 AM,55.4,55.4,100,29.51,2.0,ENE,8.1,-,0.00,Rain,Light Rain,70,2013-05-20 14:14:00
9:46 AM,55.4,55.4,100,29.50,7.0,East,4.6,-,0.01,,Overcast,90,2013-05-20 14:46:00
9:53 AM,57.0,57.0,100,29.53,7.0,East,4.6,-,0.01,,Overcast,100,2013-05-20 14:53:00
10:18 AM,60.8,59.0,94,29.51,8.0,SSE,10.4,-,N/A,,Overcast,150,2013-05-20 15:18:00
10:53 AM,66.0,60.1,81,29.52,10.0,South,12.7,-,N/A,,Mostly Cloudy,170,2013-05-20 15:53:00
11:53 AM,69.1,57.9,68,29.51,10.0,South,16.1,21.9,N/A,,Mostly Cloudy,170,2013-05-20 16:53:00
12:07 PM,69.8,57.2,64,29.50,10.0,South,12.7,21.9,N/A,,Mostly Cloudy,170,2013-05-20 17:07:00
12:53 PM,69.8,57.2,64,29.49,10.0,SSE,19.6,26.5,N/A,,Mostly Cloudy,160,2013-05-20 17:53:00
1:53 PM,64.9,61.0,87,29.52,10.0,SSE,15.0,-,0.01,,Overcast,150,2013-05-20 18:53:00
2:53 PM,66.0,59.0,78,29.52,10.0,South,11.5,-,0.00,,Mostly Cloudy,170,2013-05-20 19:53:00
3:28 PM,66.2,59.0,78,29.50,7.0,South,17.3,25.3,0.00,Rain,Light Rain,170,2013-05-20 20:28:00
3:37 PM,66.2,60.8,83,29.50,9.0,South,17.3,25.3,0.00,Rain,Light Rain,170,2013-05-20 20:37:00
3:53 PM,69.1,59.0,70,29.52,10.0,South,18.4,-,0.00,,Scattered Clouds,190,2013-05-20 20:53:00
4:53 PM,66.0,55.9,70,29.54,10.0,SSW,15.0,-,N/A,,Overcast,200,2013-05-20 21:53:00
5:53 PM,66.9,55.0,66,29.55,10.0,South,16.1,-,N/A,,Mostly Cloudy,190,2013-05-20 22:53:00
6:53 PM,66.9,55.9,68,29.57,10.0,South,10.4,-,N/A,,Overcast,170,2013-05-20 23:53:00
7:53 PM,64.9,57.0,75,29.57,10.0,SE,6.9,-,N/A,,Overcast,140,2013-05-21 00:53:00
8:53 PM,64.4,53.6,68,29.56,9.0,SW,10.4,-,N/A,Rain,Light Rain,230,2013-05-21 01:53:00
9:53 PM,59.0,57.0,93,29.59,8.0,East,4.6,-,0.11,Rain,Light Rain,100,2013-05-21 02:53:00
10:32 PM,57.2,55.4,94,29.57,9.0,ENE,9.2,-,0.00,,Overcast,60,2013-05-21 03:32:00
10:41 PM,55.4,53.6,94,29.58,5.0,East,8.1,-,0.00,Rain,Rain,80,2013-05-21 03:41:00
10:53 PM,54.0,53.1,97,29.59,5.0,NNE,6.9,-,0.02,Rain,Light Rain,30,2013-05-21 03:53:00
11:00 PM,53.6,53.6,100,29.57,7.0,NNE,8.1,-,0.01,Rain,Light Rain,30,2013-05-21 04:00:00
11:11 PM,53.6,51.8,94,29.57,1.8,ENE,10.4,-,0.11,Rain,Heavy Rain,60,2013-05-21 04:11:00
11:27 PM,51.8,51.8,100,29.56,1.8,ENE,9.2,17.3,0.34,Rain,Heavy Rain,70,2013-05-21 04:27:00
11:31 PM,51.8,51.8,100,29.56,2.0,ENE,10.4,17.3,0.38,Rain,Rain,70,2013-05-21 04:31:00
11:43 PM,51.8,50.0,94,29.56,3.0,ENE,10.4,-,0.42,Rain,Rain,60,2013-05-21 04:43:00
11:53 PM,51.1,50.0,96,29.57,5.0,ENE,11.5,18.4,0.44,Rain,Light Rain,60,2013-05-21 04:53:00